Вернуться в каталог

SL-19 DEB

LostUNKNOWN
NORAD 24703·DEBRIS·🇷🇺 Russia

Запущен Dec 26, 1994 с Baikonur Cosmodrome

Loading…

Ближайшие Пролёты (ближайшие 24 часа)

TLE

УстаревшееSource: Space-Track

Эпоха: Mar 14, 2025, 16:46 UTC

1 24703U 94085Z   25073.69862145  .00000065  00000-0  32127-2 0  9998
2 24703  64.7328 161.5969 0217629 247.7207 269.0137 11.20779294458121

Отслеживайте SL-19 DEB в реальном времени с AllMySat

Download on the App Store